Flag for Australia Weather past 2 weeks in Perth, Western Australia, Australia

Now
64 °F

Scattered clouds.


Feels Like: 64 °F
Forecast: 48 / 64 °F
Wind: 18 mph from Southwest

Location: Belmont Perth Airport

Current Time: Sep 5, 2015 at 2:33:17 PM

Latest Report: Sep 5, 2015 at 2:00 PM


Visibility: N/A

Pressure: 30.15 "Hg

Humidity: 52%

Dew point: 46 °F

Location of PerthLocation

Historic Weather in Perth — Graph

°F

Perth temperature yesterday

Maximum temperature yesterday: 68 °F (at 12:00 PM)
Minimum temperature yesterday: 41 °F (at 4:00 AM)
Average temperature yesterday: 57 °F

Past Weeks' High & Low Weather Summary

 TemperatureHumidityPressure
High77 °F (Aug 27, 1:30 PM)100% (Aug 21, 10:30 PM)30.45 "Hg (Aug 21, 10:30 PM)
Low36 °F (Sep 2, 6:30 AM)22% (Aug 27, 1:30 PM)29.83 "Hg (Aug 21, 1:00 PM)
Average56 °F68%30.13 "Hg
* Reported Aug 21 1:00 PM — Sep 5 1:00 PM, Perth, Weather by CustomWeather, © 2015

Note: Actual official high and low records may vary slightly from our data, if they occured in-between our weather recording intervals... More about our weather records

Advertising

Perth weather history for previous 24 hours

 ConditionsComfort  
Time TempWeatherWind HumidityBarometerVisibility
1:00 PM
Sat, Sep 5
63 °FPassing clouds.24 mph68%30.15 "HgN/A
12:30 PM63 °FScattered clouds.15 mph68%30.15 "HgN/A
12:00 PM64 °FScattered showers. Partly sunny.13 mph73%30.15 "HgN/A
11:30 AM66 °FSprinkles. Scattered clouds.17 mph60%30.15 "Hg5 mi
11:00 AM64 °FScattered clouds.20 mph60%30.15 "HgN/A
10:30 AM61 °FScattered clouds.15 mph83%30.15 "HgN/A
10:00 AM64 °FScattered showers. Scattered clouds.17 mph56%30.12 "HgN/A
9:30 AM64 °FScattered clouds.17 mph56%30.12 "HgN/A
9:00 AM64 °FPassing clouds.14 mph60%30.12 "HgN/A
8:30 AM63 °FPassing clouds.12 mph59%30.12 "HgN/A
8:00 AM61 °FPassing clouds.8 mph68%30.12 "HgN/A
7:30 AM54 °FPassing clouds.6 mph94%30.09 "HgN/A
7:00 AM52 °FScattered clouds.6 mph94%30.09 "HgN/A
6:30 AM52 °FScattered clouds.6 mph94%30.09 "HgN/A
6:00 AM52 °FScattered clouds.6 mph94%30.07 "HgN/A
5:30 AM54 °FPassing clouds.6 mph88%30.07 "HgN/A
5:00 AM55 °FPassing clouds.6 mph88%30.07 "HgN/A
4:30 AM57 °FPassing clouds.7 mph82%30.04 "HgN/A
4:00 AM57 °FPassing clouds.8 mph82%30.04 "HgN/A
3:30 AM59 °FPassing clouds.8 mph82%30.04 "HgN/A
3:00 AM57 °FPassing clouds.No wind100%30.04 "HgN/A
2:30 AM57 °FPartly cloudy.3 mph100%30.04 "HgN/A
2:00 AM57 °FPassing clouds.6 mph100%30.04 "HgN/A
1:30 AM57 °FScattered showers. Passing clouds.6 mph100%30.04 "HgN/A
1:00 AM57 °FSprinkles. Partly cloudy.6 mph100%30.04 "HgN/A
12:30 AM57 °FPassing clouds.6 mph100%30.01 "HgN/A
12:00 AM57 °FClear.No wind100%30.01 "Hg10 mi
11:30 PM
Fri, Sep 4
57 °FPartly cloudy.7 mph94%30.04 "HgN/A
11:00 PM59 °FSprinkles. Passing clouds.10 mph94%30.04 "Hg4 mi
10:00 PM59 °FRain showers. Mostly cloudy.No wind94%30.04 "Hg1 mi
9:30 PM59 °FSprinkles. Overcast.6 mph94%30.04 "Hg6 mi
9:00 PM59 °FRain showers. Mostly cloudy.7 mph94%30.04 "Hg2 mi
8:30 PM61 °FSprinkles. Passing clouds.9 mph83%30.04 "HgN/A
8:00 PM63 °FPartly cloudy.9 mph73%30.04 "HgN/A
7:30 PM61 °FPartly cloudy.9 mph77%30.04 "HgN/A
7:00 PM63 °FPassing clouds.9 mph73%30.04 "HgN/A
6:30 PM63 °FPassing clouds.12 mph73%30.04 "HgN/A
6:00 PM63 °FPassing clouds.15 mph68%30.01 "HgN/A
5:30 PM63 °FPassing clouds.15 mph64%30.01 "HgN/A
5:00 PM64 °FPassing clouds.14 mph60%29.98 "HgN/A
4:30 PM64 °FPartly sunny.12 mph60%29.95 "HgN/A
4:00 PM64 °FPartly sunny.13 mph60%29.98 "HgN/A
3:00 PM64 °FPartly sunny.13 mph60%29.98 "HgN/A
2:30 PM68 °FBroken clouds.15 mph49%30.01 "HgN/A
2:00 PM66 °FPartly sunny.15 mph52%30.01 "HgN/A
Weather by CustomWeather, © 2015

See weather overviewHow to use our weather pages